CZ-6A DEB, 55900

Orbit data source: Space-Track

CZ-6A DEB, 55900 is space debris in SSO originally from a launch on Fri, 11 Nov 2022 UTC launched from the Taiyaun Space Center, China (TSC). Debris objects in space refer to the collection of defunct objects orbiting the Earth. Examples of debris include non-operational satellites, rocket bodies, and fragments generated from explosions, collisions, or faulty payload assembly.

Loading next visibility...
Identifier
55900, 2022-151AAY
Orbit
SSO
Country
Flag of CNCN / PRC
Related business
Manufacturer
SAST
Mission
Spacecraft
Bus & Motor
Unknown
Mass
Unknown
Launch date (UTC)
2022-11-11 (4 years ago)
Launch vehicle
Unknown
Launch site
Taiyaun Space Center, China (TSC)
Object type
Payload
Rocket body
Debris
Shape & HBR
Unknown shape, 0.1 m
Radar Cross Section
Small (<0.1 m²)

Expand to show TLE details & history
Last TLE update: 3 days ago

TLE from 3 days ago
0 CZ-6A DEB
1 55900U 22151AAY 26170.47947354  .00001011  00000-0  47984-3 0  9997
2 55900  98.7657 180.7577 0035475 331.0452  28.8757 14.21445787179951
Epoch: 2026-06-19T11:30Z
TLE epoch observation values (Epoch: 2026-06-19T11:30:26.513Z)
Latitude
Longitude
100.43937°
Altitude
801.037 km
Speed
7.465 km/s
True Right ascension
12h 03m 01s
True Declination
0° 00' 00"
Sunlit
Object was in daylight at epoch
Visualization orbit readout
Latitude
Unknown
Longitude
Unknown
Altitude
Unknown
Speed
Unknown
Apparent Right ascension
Unknown
Apparent Declination
Unknown
Sunlit
N/A
Visualization observer readout
Local Sidereal Time
21:43:09
Azimuth
Unknown
Elevation
Unknown
Doppler factor
Unknown
Orbital elements
Apogee altitude
843.154 km
Perigee altitude
792.1 km
Semi-major axis
7,195.764 km
Eccentricity
0.00355
Inclination
98.7657°
RAAN
180.7577°
Arg. of periapsis
331.0452°
True anomaly
29.07277°
Mean anomaly
28.8757°
Eccentric anomaly
28.97416°
Mean motion
3.55572 °/min
Orbital period
101.25 mins
BSTAR
0.00047984
Loading maneuver chart data...
Computing Atmospheric mass density...
Loading historical data...
Loading historical data...
Loading historical data...
Loading historical data...
Loading historical data...
Loading historical data...
Loading historical data...

Documentation

Showing up to 5 results
|